SCP
-0 0 -0 0 0 0 -0 -0 -0 -0 0 -0 -0 -0 -0 0 -0 -0 -0 -0 -0 -1 -1 -0 -0 -0 -0 -0 -0 -0 -0 -0 -0 -0 -0 0 0 0 0 0 0 0 0
-0 -0 -0 -0 -0 -0 -0 0 -0 0 -0 -0 -0 -0 -0 -0 0 -0 0 -0 -0 -1 -1 -1 -1 -0 -0 -0 -0 -0 -0 -0 -0 -0 -0 -0 0 0 0 0 0 0 -0
0 -0 -0 0 0 -0 -0 0 0 -0 -0 0 -0 -0 -0 -0 -0 -0 -0 -0 -0 -1 -1 -1 -0 -0 -0 -0 -0 -0 -0 -0 -0 -0 -0 -0 0 0 0 0 0 0 0
0 0 0 0 0 -0 0 0 -0 -0 -0 -0 0 0 -0 -0 -0 -0 -0 -0 -0 -0 -0 -0 -0 -0 -0 -0 -0 -0 -0 -0 -0 -0 -0 -0 0 0 0 0 0 0 0
-0 -0 0 0 -0 -0 0 -0 -0 -0 -0 -0 -0 -0 0 0 0 0 0 0 -0 -0 -0 -0 -0 -0 -0 -0 -0 -0 -0 -0 -0 -0 -0 -0 0 -0 0 0 0 0 -0
-0 -0 -0 -0 0 0 0 -0 -0 -0 -0 -0 -0 0 -0 0 -0 0 -0 0 0 0 0 -0 0 0 -0 -0 -0 -0 -0 -0 -0 -0 -0 -0 -0 -0 -0 -0 -0 -0 -0
-0 -0 -0 -0 -0 -0 -0 0 -0 -0 -0 -0 0 0 0 -0 -0 -0 -0 -0 0 0 0 0 0 0 0 -0 -0 -0 -0 -0 -0 -0 -0 -0 -0 -0 -0 -0 -0 -0 -0
-0 -0 -0 0 -0 -0 0 0 -0 0 0 0 0 0 0 0 0 -0 -0 -0 -0 -0 0 0 0 0 0 0 -0 -0 -0 -1 -1 -0 -0 -0 -0 -0 -0 -0 -0 -0 -0
-0 -0 -0 0 -0 0 -0 0 0 -0 0 0 0 0 0 0 0 0 0 -0 -0 -0 0 0 -0 0 0 0 -0 -0 -1 -0 -1 -1 -1 -0 -0 -0 -0 -0 -0 -0 -0
-0 -0 -0 0 0 -0 0 0 0 -0 0 0 0 0 0 0 -0 0 0 0 -0 -0 0 0 0 0 0 0 -0 -0 -1 -1 -1 -1 -1 -0 -0 -0 -0 -0 -0 -0 -0
0 0 -0 -0 0 -0 -0 0 0 0 0 0 -0 0 0 0 0 0 0 0 -0 0 0 0 0 0 0 0 0 -0 -0 -1 -1 -1 -1 -0 -0 -0 -0 -0 -0 -0 -0
0 0 0 -0 -0 -0 0 0 -0 0 -0 -0 0 0 -0 0 0 0 0 0 -0 -0 -0 -0 -0 0 0 0 -0 -0 -0 -1 -1 -0 -0 -0 -0 -0 -0 -0 -0 -0 -0
0 0 0 0 0 -0 0 0 0 0 -0 -0 -0 -0 -0 -0 -0 0 0 0 -0 0 0 -0 -0 -0 0 0 0 0 -0 -1 -1 -0 -0 -0 -0 -0 -0 -0 -0 -0 -0
0 0 0 0 0 0 -0 0 0 0 0 0 0 -0 -0 -0 -0 0 0 0 0 0 0 -0 -0 -0 0 -0 0 -0 0 -0 -0 -0 -0 -0 -0 -0 -0 -0 -0 -0 -0
0 0 0 0 0 0 0 0 0 0 0 0 0 0 0 -0 -0 0 -0 -0 0 0 -0 0 0 0 0 -0 -0 0 0 -0 -0 -0 -0 -0 -0 -0 -0 -0 -0 -0 -0
0 0 0 0 0 0 0 0 0 0 0 0 0 0 -0 0 -0 -0 0 -0 0 0 0 0 0 0 0 -0 0 -0 0 0 -0 -0 -0 -0 -0 -0 -0 -0 -0 -0 -0
0 0 1 1 1 1 0 0 0 0 0 0 0 0 0 0 -0 -0 -0 0 0 0 0 0 0 0 0 0 0 0 0 0 0 -0 -0 -0 -0 -0 -0 -0 -0 -0 -0
0 0 0 0 1 1 1 1 0 0 -0 -0 0 -0 0 -0 -0 0 0 0 0 0 0 0 0 0 0 0 0 0 0 0 0 0 0 -0 -0 -0 0 0 0 0 0
1 1 1 0 0 0 0 1 1 0 0 0 0 -0 -0 -0 -0 0 0 0 0 0 0 0 0 0 0 1 -0 1 0 0 0 0 0 0 0 0 0 0 0 0 0
1 1 1 0 0 0 0 0 0 0 0 0 0 0 0 -0 0 0 0 -0 -0 0 0 -0 0 0 0 0 1 1 1 1 1 0 0 0 0 0 0 0 0 0 0
0 0 0 0 0 0 0 0 0 0 0 0 0 0 0 0 0 0 1 -0 -0 -0 0 0 0 0 0 0 0 0 1 1 1 1 1 0 0 0 0 0 0 0 0
0 0 0 0 0 0 0 0 0 0 0 0 0 0 0 0 0 0 0 0 0 0 0 0 0 0 0 0 0 0 0 1 1 1 1 1 0 0 0 0 0 0 0
0 0 0 0 0 0 0 0 0 0 0 0 0 0 0 0 0 0 0 0 0 0 0 0 0 0 0 0 0 0 0 0 0 0 0 0 0 0 0 0 0 0 0
0 0 0 0 0 0 0 0 0 0 0 0 0 0 0 0 0 0 0 0 0 0 0 0 0 1 1 0 0 0 0 0 0 0 1 1 1 1 0 0 0 0 0
0 0 0 0 0 0 0 0 0 0 0 0 0 0 0 0 0 0 0 0 0 0 0 0 0 0 0 0 0 0 0 0 0 0 0 0 0 0 0 0 0 0 0
0 0 0 0 0 0 0 0 0 0 0 0 0 0 0 0 0 0 0 0 0 0 0 0 0 0 0 0 0 0 1 0 0 0 0 0 0 0 0 0 0 0 0
Wind_Speed_500mb
20 16 37 10 9 10 18 23 20 20 15 10 10 11 5 7 4 6 19 32 36 26 22 24 22 19 20 21 23 24 21 17 16 13 11 12 12 12 13 11 10 11 11
22 18 18 9 13 11 18 14 16 17 13 15 16 21 10 10 13 14 19 25 30 26 20 19 20 20 21 23 25 26 24 21 19 17 14 13 13 15 14 14 12 12 13
16 13 12 19 24 23 11 11 9 19 21 19 19 14 13 21 25 19 22 23 18 20 20 26 23 21 23 26 26 27 26 21 21 20 16 16 17 16 16 15 13 14 17
16 13 14 18 14 27 18 19 17 17 14 17 15 24 23 22 18 25 29 27 20 22 30 31 26 21 22 24 25 26 27 26 26 22 19 17 18 18 18 18 16 16 19
17 24 24 20 26 26 32 23 24 25 24 24 19 27 33 31 34 31 33 24 30 32 28 24 26 28 22 22 22 23 26 26 27 26 22 20 21 21 19 20 19 18 19
18 23 21 22 18 20 26 27 22 23 23 25 27 15 35 36 29 29 35 40 26 26 30 26 30 24 21 18 16 20 25 26 26 26 23 23 23 22 21 21 19 18 17
24 25 25 19 13 14 21 22 20 26 25 29 28 23 22 33 34 26 36 42 43 37 37 36 32 25 17 17 11 15 22 24 23 24 24 25 24 24 22 21 20 19 19
25 27 33 24 18 13 18 26 21 16 19 24 25 18 15 33 41 35 36 36 37 39 46 43 47 30 23 26 18 12 20 20 20 22 24 25 25 23 21 19 18 18 17
26 34 38 27 26 22 22 26 24 24 22 24 24 17 10 9 16 22 19 37 38 39 36 45 42 42 31 27 24 22 19 17 19 20 21 23 24 22 19 17 17 17 17
23 21 23 27 29 36 27 26 26 23 25 25 23 19 21 23 12 10 18 23 44 41 43 42 33 42 36 33 35 36 22 22 20 19 20 21 22 21 19 17 16 17 16
16 19 24 23 26 33 33 30 24 22 30 24 25 23 23 24 30 25 22 22 45 34 42 34 37 36 39 37 33 34 24 22 21 21 22 23 23 22 21 18 17 17 17
17 29 29 20 23 23 26 33 31 30 35 31 30 34 29 35 33 26 14 23 34 40 40 42 36 45 47 36 30 26 29 29 22 20 24 25 25 24 23 21 19 19 19
18 9 21 16 19 17 28 39 41 42 38 35 33 40 39 41 33 27 21 25 27 13 35 43 47 43 42 43 28 27 32 28 31 29 27 28 28 27 25 23 22 21 21
14 12 10 17 12 14 23 28 39 46 48 44 37 37 40 43 39 30 22 27 24 22 20 29 37 43 45 53 34 26 23 18 21 23 23 26 29 31 29 26 23 20 19
11 13 21 21 26 26 22 26 35 41 46 46 49 41 41 45 40 34 34 33 25 15 28 15 30 41 47 44 53 38 35 32 23 26 27 26 26 29 31 29 25 24 23
1 7 9 12 17 24 27 28 36 37 42 43 45 51 49 47 44 40 38 41 36 23 30 30 35 36 43 41 41 57 40 29 28 21 31 32 34 33 31 32 32 32 32
4 15 16 16 15 18 23 32 39 42 43 45 47 55 57 49 52 47 44 49 47 44 34 23 30 25 36 37 37 36 31 34 33 25 22 28 29 38 41 39 38 39 39
16 27 26 25 29 30 29 29 29 36 41 49 53 54 62 64 64 58 55 58 53 44 49 45 40 33 44 30 28 33 35 32 39 36 28 30 31 39 39 38 34 36 37
19 25 31 40 39 36 38 42 44 42 38 38 42 52 59 65 65 73 66 57 64 58 48 56 51 44 31 38 38 40 38 34 31 37 43 43 38 35 34 35 35 35 34
36 34 37 40 41 43 46 45 36 36 38 39 41 40 50 60 60 56 57 70 67 57 47 53 60 59 56 53 47 40 41 39 41 40 37 35 35 35 35 35 38 42 42
34 32 34 39 43 44 47 44 40 44 49 52 55 58 56 52 47 47 51 62 62 65 66 57 52 55 59 67 64 59 59 54 54 56 50 41 37 35 36 34 40 47 45
43 42 45 45 43 46 44 46 49 51 53 57 61 62 59 53 42 42 47 50 57 59 54 53 60 65 63 65 61 57 51 57 59 48 54 55 43 48 49 46 39 38 39
48 50 57 56 54 52 49 50 49 51 53 53 54 58 60 55 49 41 46 57 58 60 62 57 59 62 67 69 63 61 55 55 51 53 48 55 60 49 42 40 47 45 44
54 66 77 69 61 59 56 55 54 55 53 55 58 55 56 56 47 44 44 46 52 47 43 47 55 67 70 63 63 66 67 53 47 43 42 49 44 46 50 48 50 51 46
74 71 62 56 57 61 60 60 58 58 59 59 57 59 58 55 52 46 50 49 51 57 64 58 55 51 57 59 59 59 68 67 72 68 56 59 60 61 61 61 65 64 50
74 77 73 69 69 69 61 58 55 57 59 67 68 68 61 53 50 46 42 46 48 44 47 56 55 52 49 51 49 55 57 66 74 83 84 73 74 69 76 73 54 48 51
Wind_Direction_500mb
219 239 215 220 234 264 223 204 209 220 220 222 163 208 295 308 325 210 215 218 217 232 232 247 253 255 253 246 239 231 228 231 223 229 238 237 254 259 255 261 268 276 280
183 238 209 210 238 258 175 199 201 204 240 234 234 234 226 259 245 268 223 205 206 214 224 256 261 266 262 253 244 234 229 231 225 228 236 237 242 249 251 261 264 261 270
214 197 235 241 241 227 181 197 198 217 232 222 244 214 219 259 238 244 239 223 217 231 238 247 260 262 262 251 244 236 228 232 230 228 239 240 243 246 250 253 249 246 252
235 243 251 246 242 222 217 176 219 204 198 218 228 220 225 236 235 232 247 252 237 261 255 247 261 261 259 252 246 243 229 228 235 232 234 242 241 248 252 254 255 243 249
244 268 267 258 254 245 230 204 199 215 220 239 241 246 239 232 232 237 243 251 241 249 270 253 263 263 265 257 247 246 234 233 228 232 236 240 239 243 249 252 255 250 246
240 252 263 252 255 253 207 212 224 210 217 228 244 245 233 234 240 225 231 242 252 244 248 248 251 262 271 243 240 242 243 238 235 238 241 239 237 242 248 251 253 253 250
245 251 274 257 257 238 207 220 228 219 229 237 247 268 240 264 262 237 250 241 244 250 246 249 254 249 255 242 248 241 235 237 241 244 242 238 235 238 244 244 244 245 247
240 248 260 269 261 253 245 240 226 209 228 225 234 255 275 280 261 247 251 247 241 238 242 256 251 249 251 257 258 265 237 231 233 240 239 235 234 239 241 241 244 245 247
247 247 249 247 249 255 251 238 239 243 233 222 223 223 250 253 279 287 280 250 240 235 245 243 248 246 257 261 248 245 239 231 225 233 237 236 235 234 233 233 238 242 244
264 263 249 242 250 246 249 252 240 234 230 232 235 228 230 263 273 309 291 284 242 246 235 246 259 239 255 271 259 254 243 237 227 229 231 233 235 236 233 231 233 239 243
297 294 282 270 273 248 257 262 244 245 249 243 242 238 234 243 255 245 227 256 248 231 226 231 237 239 255 267 264 253 218 231 243 246 241 238 236 233 232 231 233 239 245
311 343 323 291 255 257 246 253 253 251 261 251 250 247 252 239 248 228 246 267 249 227 220 225 234 239 253 263 261 252 225 236 244 252 243 237 236 235 236 238 241 246 251
309 329 356 319 255 242 239 252 255 249 259 255 256 257 251 239 252 265 262 276 266 235 232 220 223 230 244 247 254 242 243 250 246 253 245 235 234 236 237 241 245 249 252
282 304 346 343 349 277 241 240 259 262 261 268 264 261 254 246 256 257 261 286 249 243 204 254 235 229 233 224 237 223 229 240 241 243 244 240 237 238 238 240 242 245 253
292 306 305 296 277 268 261 258 263 267 267 263 263 259 256 256 255 255 244 217 223 270 206 230 242 229 222 224 223 229 232 238 254 254 251 251 247 242 239 237 241 250 258
96 360 343 324 316 281 281 277 273 272 271 266 258 258 261 258 257 251 250 246 241 243 247 240 244 234 224 233 225 233 225 229 239 270 260 262 260 252 245 245 252 257 260
331 326 327 321 315 298 290 280 276 273 267 269 267 261 259 258 253 248 249 248 248 243 253 246 233 229 233 235 224 214 218 235 249 256 275 263 264 255 250 252 257 261 262
276 290 297 302 301 293 294 294 291 284 276 270 266 263 262 257 253 259 247 250 252 248 240 241 238 260 236 218 213 215 233 246 251 251 257 251 264 256 251 253 261 267 266
260 282 290 296 296 287 290 294 293 292 291 292 285 273 269 266 261 256 263 260 260 257 247 246 242 240 241 226 222 247 255 258 261 260 259 262 253 246 250 256 266 267 275
284 280 279 282 285 283 283 286 296 299 302 296 295 294 277 272 268 263 266 265 261 259 258 254 247 246 245 243 244 244 249 256 265 263 261 263 253 258 256 263 267 270 270
302 294 288 285 286 286 284 286 282 281 288 292 292 292 291 289 275 264 242 246 251 255 252 253 258 252 254 253 251 251 262 267 263 261 263 258 257 258 249 257 270 265 270
308 307 309 307 297 291 291 285 282 283 282 284 287 288 289 289 290 262 253 256 259 259 260 258 258 257 255 258 262 260 261 259 259 256 248 259 251 262 269 266 267 260 269
303 302 307 302 296 292 289 288 288 286 285 285 286 286 291 292 291 283 266 263 259 263 260 261 259 256 259 257 259 259 258 261 264 259 257 250 261 250 256 275 261 265 267
295 300 301 295 291 288 285 285 286 288 287 288 288 288 286 290 288 284 275 270 264 266 263 260 259 266 266 263 257 255 257 263 261 258 257 252 246 246 261 271 271 266 269
305 304 303 298 291 286 283 284 283 285 285 285 291 293 288 284 282 284 280 273 270 266 267 268 264 264 260 261 260 261 257 259 261 259 253 258 255 258 264 274 278 265 258
301 301 298 296 291 289 284 280 280 277 279 286 290 293 287 281 278 277 278 273 268 271 267 264 263 261 260 258 256 259 260 256 255 261 256 263 264 267 274 276 258 253 253
Wind_Speed_850mb
20 16 37 10 9 10 18 23 20 20 15 10 10 11 5 7 4 6 19 32 36 26 22 24 22 19 20 21 23 24 21 17 16 13 11 12 12 12 13 11 10 11 11
22 18 18 9 13 11 18 14 16 17 13 15 16 21 10 10 13 14 19 25 30 26 20 19 20 20 21 23 25 26 24 21 19 17 14 13 13 15 14 14 12 12 13
16 13 12 19 24 23 11 11 9 19 21 19 19 14 13 21 25 19 22 23 18 20 20 26 23 21 23 26 26 27 26 21 21 20 16 16 17 16 16 15 13 14 17
16 13 14 18 14 27 18 19 17 17 14 17 15 24 23 22 18 25 29 27 20 22 30 31 26 21 22 24 25 26 27 26 26 22 19 17 18 18 18 18 16 16 19
17 24 24 20 26 26 32 23 24 25 24 24 19 27 33 31 34 31 33 24 30 32 28 24 26 28 22 22 22 23 26 26 27 26 22 20 21 21 19 20 19 18 19
18 23 21 22 18 20 26 27 22 23 23 25 27 15 35 36 29 29 35 40 26 26 30 26 30 24 21 18 16 20 25 26 26 26 23 23 23 22 21 21 19 18 17
24 25 25 19 13 14 21 22 20 26 25 29 28 23 22 33 34 26 36 42 43 37 37 36 32 25 17 17 11 15 22 24 23 24 24 25 24 24 22 21 20 19 19
25 27 33 24 18 13 18 26 21 16 19 24 25 18 15 33 41 35 36 36 37 39 46 43 47 30 23 26 18 12 20 20 20 22 24 25 25 23 21 19 18 18 17
26 34 38 27 26 22 22 26 24 24 22 24 24 17 10 9 16 22 19 37 38 39 36 45 42 42 31 27 24 22 19 17 19 20 21 23 24 22 19 17 17 17 17
23 21 23 27 29 36 27 26 26 23 25 25 23 19 21 23 12 10 18 23 44 41 43 42 33 42 36 33 35 36 22 22 20 19 20 21 22 21 19 17 16 17 16
16 19 24 23 26 33 33 30 24 22 30 24 25 23 23 24 30 25 22 22 45 34 42 34 37 36 39 37 33 34 24 22 21 21 22 23 23 22 21 18 17 17 17
17 29 29 20 23 23 26 33 31 30 35 31 30 34 29 35 33 26 14 23 34 40 40 42 36 45 47 36 30 26 29 29 22 20 24 25 25 24 23 21 19 19 19
18 9 21 16 19 17 28 39 41 42 38 35 33 40 39 41 33 27 21 25 27 13 35 43 47 43 42 43 28 27 32 28 31 29 27 28 28 27 25 23 22 21 21
14 12 10 17 12 14 23 28 39 46 48 44 37 37 40 43 39 30 22 27 24 22 20 29 37 43 45 53 34 26 23 18 21 23 23 26 29 31 29 26 23 20 19
11 13 21 21 26 26 22 26 35 41 46 46 49 41 41 45 40 34 34 33 25 15 28 15 30 41 47 44 53 38 35 32 23 26 27 26 26 29 31 29 25 24 23
1 7 9 12 17 24 27 28 36 37 42 43 45 51 49 47 44 40 38 41 36 23 30 30 35 36 43 41 41 57 40 29 28 21 31 32 34 33 31 32 32 32 32
4 15 16 16 15 18 23 32 39 42 43 45 47 55 57 49 52 47 44 49 47 44 34 23 30 25 36 37 37 36 31 34 33 25 22 28 29 38 41 39 38 39 39
16 27 26 25 29 30 29 29 29 36 41 49 53 54 62 64 64 58 55 58 53 44 49 45 40 33 44 30 28 33 35 32 39 36 28 30 31 39 39 38 34 36 37
19 25 31 40 39 36 38 42 44 42 38 38 42 52 59 65 65 73 66 57 64 58 48 56 51 44 31 38 38 40 38 34 31 37 43 43 38 35 34 35 35 35 34
36 34 37 40 41 43 46 45 36 36 38 39 41 40 50 60 60 56 57 70 67 57 47 53 60 59 56 53 47 40 41 39 41 40 37 35 35 35 35 35 38 42 42
34 32 34 39 43 44 47 44 40 44 49 52 55 58 56 52 47 47 51 62 62 65 66 57 52 55 59 67 64 59 59 54 54 56 50 41 37 35 36 34 40 47 45
43 42 45 45 43 46 44 46 49 51 53 57 61 62 59 53 42 42 47 50 57 59 54 53 60 65 63 65 61 57 51 57 59 48 54 55 43 48 49 46 39 38 39
48 50 57 56 54 52 49 50 49 51 53 53 54 58 60 55 49 41 46 57 58 60 62 57 59 62 67 69 63 61 55 55 51 53 48 55 60 49 42 40 47 45 44
54 66 77 69 61 59 56 55 54 55 53 55 58 55 56 56 47 44 44 46 52 47 43 47 55 67 70 63 63 66 67 53 47 43 42 49 44 46 50 48 50 51 46
74 71 62 56 57 61 60 60 58 58 59 59 57 59 58 55 52 46 50 49 51 57 64 58 55 51 57 59 59 59 68 67 72 68 56 59 60 61 61 61 65 64 50
74 77 73 69 69 69 61 58 55 57 59 67 68 68 61 53 50 46 42 46 48 44 47 56 55 52 49 51 49 55 57 66 74 83 84 73 74 69 76 73 54 48 51
Wind_Direction_850mb
219 239 215 220 234 264 223 204 209 220 220 222 163 208 295 308 325 210 215 218 217 232 232 247 253 255 253 246 239 231 228 231 223 229 238 237 254 259 255 261 268 276 280
183 238 209 210 238 258 175 199 201 204 240 234 234 234 226 259 245 268 223 205 206 214 224 256 261 266 262 253 244 234 229 231 225 228 236 237 242 249 251 261 264 261 270
214 197 235 241 241 227 181 197 198 217 232 222 244 214 219 259 238 244 239 223 217 231 238 247 260 262 262 251 244 236 228 232 230 228 239 240 243 246 250 253 249 246 252
235 243 251 246 242 222 217 176 219 204 198 218 228 220 225 236 235 232 247 252 237 261 255 247 261 261 259 252 246 243 229 228 235 232 234 242 241 248 252 254 255 243 249
244 268 267 258 254 245 230 204 199 215 220 239 241 246 239 232 232 237 243 251 241 249 270 253 263 263 265 257 247 246 234 233 228 232 236 240 239 243 249 252 255 250 246
240 252 263 252 255 253 207 212 224 210 217 228 244 245 233 234 240 225 231 242 252 244 248 248 251 262 271 243 240 242 243 238 235 238 241 239 237 242 248 251 253 253 250
245 251 274 257 257 238 207 220 228 219 229 237 247 268 240 264 262 237 250 241 244 250 246 249 254 249 255 242 248 241 235 237 241 244 242 238 235 238 244 244 244 245 247
240 248 260 269 261 253 245 240 226 209 228 225 234 255 275 280 261 247 251 247 241 238 242 256 251 249 251 257 258 265 237 231 233 240 239 235 234 239 241 241 244 245 247
247 247 249 247 249 255 251 238 239 243 233 222 223 223 250 253 279 287 280 250 240 235 245 243 248 246 257 261 248 245 239 231 225 233 237 236 235 234 233 233 238 242 244
264 263 249 242 250 246 249 252 240 234 230 232 235 228 230 263 273 309 291 284 242 246 235 246 259 239 255 271 259 254 243 237 227 229 231 233 235 236 233 231 233 239 243
297 294 282 270 273 248 257 262 244 245 249 243 242 238 234 243 255 245 227 256 248 231 226 231 237 239 255 267 264 253 218 231 243 246 241 238 236 233 232 231 233 239 245
311 343 323 291 255 257 246 253 253 251 261 251 250 247 252 239 248 228 246 267 249 227 220 225 234 239 253 263 261 252 225 236 244 252 243 237 236 235 236 238 241 246 251
309 329 356 319 255 242 239 252 255 249 259 255 256 257 251 239 252 265 262 276 266 235 232 220 223 230 244 247 254 242 243 250 246 253 245 235 234 236 237 241 245 249 252
282 304 346 343 349 277 241 240 259 262 261 268 264 261 254 246 256 257 261 286 249 243 204 254 235 229 233 224 237 223 229 240 241 243 244 240 237 238 238 240 242 245 253
292 306 305 296 277 268 261 258 263 267 267 263 263 259 256 256 255 255 244 217 223 270 206 230 242 229 222 224 223 229 232 238 254 254 251 251 247 242 239 237 241 250 258
96 360 343 324 316 281 281 277 273 272 271 266 258 258 261 258 257 251 250 246 241 243 247 240 244 234 224 233 225 233 225 229 239 270 260 262 260 252 245 245 252 257 260
331 326 327 321 315 298 290 280 276 273 267 269 267 261 259 258 253 248 249 248 248 243 253 246 233 229 233 235 224 214 218 235 249 256 275 263 264 255 250 252 257 261 262
276 290 297 302 301 293 294 294 291 284 276 270 266 263 262 257 253 259 247 250 252 248 240 241 238 260 236 218 213 215 233 246 251 251 257 251 264 256 251 253 261 267 266
260 282 290 296 296 287 290 294 293 292 291 292 285 273 269 266 261 256 263 260 260 257 247 246 242 240 241 226 222 247 255 258 261 260 259 262 253 246 250 256 266 267 275
284 280 279 282 285 283 283 286 296 299 302 296 295 294 277 272 268 263 266 265 261 259 258 254 247 246 245 243 244 244 249 256 265 263 261 263 253 258 256 263 267 270 270
302 294 288 285 286 286 284 286 282 281 288 292 292 292 291 289 275 264 242 246 251 255 252 253 258 252 254 253 251 251 262 267 263 261 263 258 257 258 249 257 270 265 270
308 307 309 307 297 291 291 285 282 283 282 284 287 288 289 289 290 262 253 256 259 259 260 258 258 257 255 258 262 260 261 259 259 256 248 259 251 262 269 266 267 260 269
303 302 307 302 296 292 289 288 288 286 285 285 286 286 291 292 291 283 266 263 259 263 260 261 259 256 259 257 259 259 258 261 264 259 257 250 261 250 256 275 261 265 267
295 300 301 295 291 288 285 285 286 288 287 288 288 288 286 290 288 284 275 270 264 266 263 260 259 266 266 263 257 255 257 263 261 258 257 252 246 246 261 271 271 266 269
305 304 303 298 291 286 283 284 283 285 285 285 291 293 288 284 282 284 280 273 270 266 267 268 264 264 260 261 260 261 257 259 261 259 253 258 255 258 264 274 278 265 258
301 301 298 296 291 289 284 280 280 277 279 286 290 293 287 281 278 277 278 273 268 271 267 264 263 261 260 258 256 259 260 256 255 261 256 263 264 267 274 276 258 253 253